GW4399 Weather Reports


time (UTC)temp
C
wind
direction
speed
KPH
gust
KPH
rain 1hr
cm
rain 24hr
cm
rain mn
cm
humidity
%
barometer
mb
20260504120138 12 324 4.8 6.4 0.00 0.00 0.00 44 1027.5
20260504110606 10 246 0.0 1.6 0.00 0.00 0.00 48 1027.5
20260504100528 8 207 0.0 3.2 0.00 0.00 0.00 51 1027.3
20260504081921 8 275 1.6 3.2 0.00 0.00 0.00 52 1027.0
20260504081418 8 165 1.6 3.2 0.00 0.00 0.00 52 1027.1
20260504080914 8 266 3.2 4.8 0.00 0.00 0.00 52 1026.8
20260504080411 8 279 0.0 3.2 0.00 0.00 0.00 53 1027.1
20260504070338 6 215 0.0 0.0 0.00 0.00 0.00 61 1026.9
20260504050720 7 289 0.0 0.0 0.00 0.00 0.00 55 1026.7
20260504050217 6 289 0.0 0.0 0.00 0.00 0.00 56 1026.7
20260504045715 5 308 1.6 1.6 0.00 0.00 0.00 69 1026.7
20260504045210 4 329 0.0 1.6 0.00 0.00 0.00 75 1026.7
20260504044708 4 331 1.6 1.6 0.00 0.00 0.00 77 1026.5
20260504044205 4 326 1.6 3.2 0.00 0.00 0.00 77 1026.8
20260504043702 4 285 1.6 1.6 0.00 0.00 0.00 76 1026.6
20260504043158 5 284 1.6 1.6 0.00 0.00 0.00 75 1026.4
20260504042656 5 283 1.6 1.6 0.00 0.00 0.00 74 1026.5
20260504042152 5 283 0.0 1.6 0.00 0.00 0.00 72 1026.2
20260504041648 6 283 0.0 1.6 0.00 0.00 0.00 68 1026.4
20260504041144 6 283 1.6 1.6 0.00 0.00 0.00 64 1026.3
20260504040642 6 282 0.0 1.6 0.00 0.00 0.00 65 1026.2
20260504040138 6 282 0.0 0.0 0.00 0.00 0.00 62 1026.3
20260504035635 6 282 0.0 0.0 0.00 0.00 0.00 63 1026.1
20260504035132 6 282 0.0 0.0 0.00 0.00 0.00 64 1026.3
20260504034630 6 282 0.0 0.0 0.00 0.00 0.00 63 1026.1
20260504034126 6 282 0.0 0.0 0.00 0.00 0.00 62 1026.1
20260504033624 6 282 0.0 0.0 0.00 0.00 0.00 60 1026.2
20260504033121 6 282 0.0 0.0 0.00 0.00 0.00 63 1026.1
20260504032618 6 282 0.0 0.0 0.00 0.00 0.00 61 1026.2
20260504032115 7 282 0.0 0.0 0.00 0.00 0.00 61 1026.3
20260504031613 7 282 0.0 0.0 0.00 0.00 0.00 62 1026.2
20260504031108 7 282 0.0 0.0 0.00 0.00 0.00 60 1026.1
20260504030606 8 282 0.0 0.0 0.00 0.00 0.00 58 1026.1
20260504025559 8 282 0.0 0.0 0.00 0.00 0.00 53 1026.3
20260504025056 8 282 0.0 0.0 0.00 0.00 0.00 55 1026.1
20260504024553 8 282 0.0 0.0 0.00 0.00 0.00 57 1026.1
20260504024050 8 282 0.0 0.0 0.00 0.00 0.00 55 1026.2
20260504023546 8 282 0.0 0.0 0.00 0.00 0.00 51 1026.4
20260504023042 8 282 0.0 0.0 0.00 0.00 0.00 54 1026.2
20260504022538 8 282 0.0 0.0 0.00 0.00 0.00 52 1026.4
20260504022035 8 282 0.0 0.0 0.00 0.00 0.00 53 1026.3
20260504021532 9 282 0.0 0.0 0.00 0.00 0.00 50 1026.1
20260504021028 8 282 0.0 0.0 0.00 0.00 0.00 49 1026.1
20260504020525 8 282 0.0 0.0 0.00 0.00 0.00 50 1026.2
20260504020022 8 282 0.0 0.0 0.00 0.00 0.00 52 1026.2
20260504015518 8 282 0.0 0.0 0.00 0.00 0.00 53 1026.4
20260504015014 8 282 0.0 0.0 0.00 0.00 0.00 54 1026.3
20260504014510 9 282 0.0 0.0 0.00 0.00 0.00 52 1026.1
20260504014008 10 282 0.0 0.0 0.00 0.00 0.00 50 1026.2
20260504013506 10 282 0.0 0.0 0.00 0.00 0.00 46 1026.1
20260504013001 10 282 0.0 0.0 0.00 0.00 0.00 47 1026.1
20260504012500 10 282 0.0 0.0 0.00 0.00 0.00 46 1026.1
20260504011958 10 282 0.0 1.6 0.00 0.00 0.00 44 1026.1
20260504011454 10 282 0.0 1.6 0.00 0.00 0.00 44 1026.0
20260504010950 11 282 0.0 1.6 0.00 0.00 0.00 46 1026.3
20260504010446 11 282 0.0 1.6 0.00 0.00 0.00 42 1026.1
20260504005942 11 282 1.6 1.6 0.00 0.00 0.00 42 1026.1
20260504005439 11 282 1.6 1.6 0.00 0.00 0.00 43 1025.9
20260504004936 11 282 0.0 0.0 0.00 0.00 0.00 42 1025.8
20260504004434 11 282 0.0 1.6 0.00 0.00 0.00 42 1025.8
20260504003931 11 282 1.6 1.6 0.00 0.00 0.00 40 1025.7
20260504003427 12 279 1.6 1.6 0.00 0.00 0.00 41 1025.7
20260504002923 12 272 1.6 3.2 0.00 0.00 0.00 40 1025.5
20260504002420 12 285 0.0 1.6 0.00 0.00 0.00 39 1025.6
20260504001918 12 285 0.0 4.8 0.00 0.00 0.00 38 1025.6
20260504001416 12 278 3.2 4.8 0.00 0.00 0.00 37 1025.4
20260504000912 12 276 3.2 4.8 0.00 0.00 0.00 37 1025.4
20260504000409 13 276 1.6 3.2 0.00 0.00 0.00 37 1025.3
20260503235907 13 293 3.2 4.8 0.00 0.00 0.00 36 1025.3
20260503235404 13 295 1.6 1.6 0.00 0.00 0.00 36 1025.2
20260503234901 13 296 1.6 3.2 0.00 0.00 0.00 36 1025.2
20260503234359 13 295 1.6 3.2 0.00 0.00 0.00 36 1025.0
20260503233856 13 272 1.6 4.8 0.00 0.00 0.00 35 1025.0
20260503233353 13 288 3.2 3.2 0.00 0.00 0.00 36 1024.9
20260503232850 13 289 0.0 3.2 0.00 0.00 0.00 36 1024.9
20260503232347 13 320 0.0 1.6 0.00 0.00 0.00 36 1024.9
20260503231844 13 284 3.2 3.2 0.00 0.00 0.00 35 1024.9
20260503231341 13 286 0.0 1.6 0.00 0.00 0.00 36 1024.8
20260503230837 13 265 1.6 3.2 0.00 0.00 0.00 35 1024.7
20260503230334 13 333 1.6 3.2 0.00 0.00 0.00 35 1024.7
20260503225827 13 334 1.6 4.8 0.00 0.00 0.00 34 1024.7
20260503225322 13 325 3.2 4.8 0.00 0.00 0.00 33 1024.6
20260503224818 13 349 6.4 9.7 0.00 0.00 0.00 34 1024.5
20260503224316 13 282 1.6 4.8 0.00 0.00 0.00 35 1024.6
20260503223814 13 341 3.2 11.3 0.00 0.00 0.00 33 1024.6
20260503223311 13 315 4.8 6.4 0.00 0.00 0.00 34 1024.5
20260503222807 13 334 3.2 6.4 0.00 0.00 0.00 31 1024.7
20260503222306 14 347 4.8 11.3 0.00 0.00 0.00 32 1024.5
20260503221803 14 308 3.2 12.9 0.00 0.00 0.00 31 1024.3
20260503221301 14 288 4.8 9.7 0.00 0.00 0.00 30 1024.3
20260503220757 13 284 6.4 11.3 0.00 0.00 0.00 31 1024.3
20260503220254 13 309 3.2 12.9 0.00 0.00 0.00 30 1024.4
20260503215750 13 310 4.8 6.4 0.00 0.00 0.00 31 1024.4
20260503215248 13 321 4.8 6.4 0.00 0.00 0.00 30 1024.5
20260503214746 13 313 6.4 9.7 0.00 0.00 0.00 29 1024.3
20260503214242 13 271 4.8 6.4 0.00 0.00 0.00 30 1024.3
20260503213740 14 287 1.6 12.9 0.00 0.00 0.00 30 1024.4
20260503213237 14 316 1.6 4.8 0.00 0.00 0.00 28 1024.3
20260503212734 14 341 4.8 14.5 0.00 0.00 0.00 28 1024.2
20260503212232 14 314 3.2 11.3 0.00 0.00 0.00 29 1024.2
20260503211730 14 353 4.8 14.5 0.00 0.00 0.00 28 1024.2
20260503211225 14 295 6.4 17.7 0.00 0.00 0.00 28 1024.1
20260503210721 13 336 6.4 9.7 0.00 0.00 0.00 28 1024.4
20260503210219 14 328 8.0 11.3 0.00 0.00 0.00 27 1024.1
20260503205714 14 349 4.8 6.4 0.00 0.00 0.00 30 1024.2
20260503205210 14 341 4.8 14.5 0.00 0.00 0.00 29 1024.0
20260503204707 14 314 3.2 11.3 0.00 0.00 0.00 28 1024.1
20260503204205 15 287 3.2 20.9 0.00 0.00 0.00 29 1024.3
20260503203702 15 292 3.2 12.9 0.00 0.00 0.00 30 1024.3
20260503203159 14 7 8.0 12.9 0.00 0.00 0.00 28 1024.5
20260503202656 14 340 4.8 16.1 0.00 0.00 0.00 30 1024.2
20260503202154 13 312 1.6 12.9 0.00 0.00 0.00 30 1024.5
20260503201652 13 284 6.4 14.5 0.00 0.00 0.00 30 1024.5
20260503201149 14 3 4.8 12.9 0.00 0.00 0.00 30 1024.3
20260503200644 13 325 8.0 14.5 0.00 0.00 0.00 30 1024.4
20260503200141 13 283 8.0 11.3 0.00 0.00 0.00 30 1024.5
20260503195638 13 283 1.6 4.8 0.00 0.00 0.00 32 1024.6
20260503195135 13 313 4.8 4.8 0.00 0.00 0.00 32 1024.8
20260503194633 13 339 3.2 12.9 0.00 0.00 0.00 33 1024.5
20260503194128 13 5 6.4 11.3 0.00 0.00 0.00 30 1024.7
20260503193625 13 260 3.2 14.5 0.00 0.00 0.00 33 1024.7
20260503193120 12 343 6.4 12.9 0.00 0.00 0.00 33 1024.9
20260503192616 13 348 8.0 12.9 0.00 0.00 0.00 34 1024.9
20260503192112 13 309 1.6 11.3 0.00 0.00 0.00 33 1024.9
20260503191609 13 304 6.4 6.4 0.00 0.00 0.00 32 1025.1
20260503191105 13 305 6.4 9.7 0.00 0.00 0.00 32 1024.8
20260503190603 13 272 3.2 9.7 0.00 0.00 0.00 32 1025.0
20260503190100 13 2 1.6 16.1 0.00 0.00 0.00 36 1025.1
20260503185556 13 300 8.0 25.7 0.00 0.00 0.00 33 1024.8
20260503185056 13 297 6.4 14.5 0.00 0.00 0.00 33 1025.0
20260503184552 13 326 8.0 12.9 0.00 0.00 0.00 32 1025.1
20260503184048 12 272 6.4 11.3 0.00 0.00 0.00 34 1025.0
20260503183545 12 318 4.8 9.7 0.00 0.00 0.00 36 1025.2
20260503183042 13 282 6.4 11.3 0.00 0.00 0.00 34 1025.3
20260503182541 13 332 3.2 9.7 0.00 0.00 0.00 39 1025.2
20260503182039 13 319 4.8 4.8 0.00 0.00 0.00 36 1025.3
20260503181535 12 337 6.4 11.3 0.00 0.00 0.00 36 1025.4
20260503181031 12 295 6.4 16.1 0.00 0.00 0.00 35 1025.5
20260503180529 11 317 6.4 6.4 0.00 0.00 0.00 36 1025.4
20260503180026 11 353 6.4 11.3 0.00 0.00 0.00 36 1025.4
20260503175523 11 272 3.2 6.4 0.00 0.00 0.00 36 1025.6
20260503175020 11 34 4.8 11.3 0.00 0.00 0.00 38 1025.7
20260503174518 11 28 1.6 3.2 0.00 0.00 0.00 39 1025.6
20260503174014 11 311 3.2 9.7 0.00 0.00 0.00 40 1026.0
20260503173509 10 319 3.2 14.5 0.00 0.00 0.00 41 1025.8
20260503173005 10 282 6.4 9.7 0.00 0.00 0.00 40 1025.9
20260503172504 10 336 4.8 6.4 0.00 0.00 0.00 41 1025.8
20260503172000 10 298 1.6 4.8 0.00 0.00 0.00 43 1025.9
20260503171456 10 260 3.2 9.7 0.00 0.00 0.00 41 1025.8
20260503170954 10 281 3.2 11.3 0.00 0.00 0.00 41 1025.8
20260503170450 10 274 6.4 12.9 0.00 0.00 0.00 41 1026.1
20260503150831 9 59 4.8 6.4 0.00 0.00 0.00 39 1025.9
20260503150327 10 345 8.0 22.5 0.00 0.00 0.00 35 1026.0
20260503140251 8 307 8.0 14.5 0.00 0.00 0.00 48 1026.2
20260503131220 7 63 1.6 11.3 0.00 0.00 0.00 50 1026.5
20260503130718 7 316 4.8 11.3 0.00 0.00 0.00 50 1026.3
20260503130215 7 325 6.4 9.7 0.00 0.00 0.00 50 1026.5